Regional Weather Roundup
Issued by NWS

Home | Current Version | Previous Version | Graphics & Text | Print | Product List | Glossary On
Versions: 1 2 3 4 5 6 7 8 9 10 11 12 13 14 15 16 17 18 19 20 21 22 23 24 25 26 27 28 29 30 31 32 33 34 35 36 37 38 39 40 41 42 43 44 45 46 47 48 49 50
000
ASUS43 KLSX 040959
RWRMO

WEATHER SUMMARY FOR MISSOURI
NATIONAL WEATHER SERVICE SPRINGFIELD MO
400 AM CST WED MAR 04 2015

NOTE: "FAIR" INDICATES FEW OR NO CLOUDS BELOW 12,000 FEET WITH NO
       SIGNIFICANT WEATHER AND/OR OBSTRUCTIONS TO VISIBILITY.
       CURRENT SKY AND/OR WEATHER CONDITIONS ARE NOT AVAILABLE FOR
       CHILLICOTHE AND FARMINGTON.

MOZ001>031-035>038-043-044-053-054-041100-
...NORTHERN AND WESTERN MISSOURI...

CITY           SKY/WX    TMP DP  RH WIND       PRES   REMARKS
KANSAS CTY INT CLOUDY    20   7  57 N17       30.14R WCI   5
KANSAS C DTWN  CLOUDY    21   8  57 N12       30.17R WCI   9
LEE`S SUMMIT   CLOUDY    21  11  65 N23       30.13R WCI   5
ST JOSEPH      CLOUDY    19   6  57 N17G24    30.19R WCI   4
CHILLICOTHE      N/A     19   9  65 N9        30.18R WCI   8

$$
MOZ066>068-077>081-088>096-101>105-041100-
...SOUTHWEST MISSOURI...

CITY           SKY/WX    TMP DP  RH WIND       PRES   REMARKS
SPRINGFIELD    CLOUDY    34  28  79 N15       29.96R WCI  24
JOPLIN         CLOUDY    33  29  85 N15       30.01R WCI  23

$$
MOZ032>034-039>042-045>050-055>058-069>072-041100-
...CENTRAL MISSOURI...

CITY           SKY/WX    TMP DP  RH WIND       PRES   REMARKS
COLUMBIA       CLOUDY    29  19  66 N18       30.03F WCI  16
JEFFERSON CITY CLOUDY    31  18  58 N16       30.05R WCI  20
ROLLA          CLOUDY    32  29  88 N14       29.96S WCI  22
SEDALIA        CLOUDY    29  22  75 N21       30.07S WCI  16
OSAGE BEACH    CLOUDY    34  28  80 N8        30.00S WCI  27

$$
MOZ051-052-059>065-041100-
...EAST CENTRAL MISSOURI...

CITY           SKY/WX    TMP DP  RH WIND       PRES   REMARKS
ST LOUIS INTL  NOT AVBL
SPIRIT OF STL  FLURRIES  33  28  81 N12       30.01R WCI  24
ST CHARLES     CLOUDY    32  25  75 N15       30.03R WCI  22

$$
MOZ072>076-082>087-097>100-106>115-041100-
...SOUTH CENTRAL AND SOUTHEAST MISSOURI...

CITY           SKY/WX    TMP DP  RH WIND       PRES   REMARKS
CAPE GIRARDEAU CLOUDY    40  39  97 N17       29.91S
FARMINGTON     CLOUDY    32  30  93 N9        29.99R WCI  24
POPLAR BLUFF   LGT RAIN  42  39  89 NE6       29.90R FOG
WEST PLAINS    CLOUDY    37  34  89 N16       29.92R WCI  28

$$


USA.gov is the U.S. government's official web portal to all federal, state and local government web resources and services.